Probability
0 0 0 0 0 0 0 0 0 0 0 0 0 0 0 0 0 0 0 0 0 0 0 0 0 0 0 0 0 0 0 0 0 0 0 0 0 0
0 0 0 0 0 0 0 0 0 0 0 0 0 0 0 0 0 0 0 0 0 0 0 0 0 0 0 0 0 0 0 0 0 0 0 0 0 0
0 0 0 0 0 0 0 0 0 0 0 0 0 0 0 0 0 0 0 0 0 0 0 0 0 0 0 0 0 0 0 0 0 0 0 0 0 0
0 0 0 0 0 0 0 0 0 0 0 0 0 0 0 0 0 0 0 0 0 0 0 0 0 0 0 0 0 0 0 0 0 0 0 0 0 0
0 0 0 0 0 0 0 0 0 0 0 0 0 0 0 0 0 0 0 0 0 0 0 0 0 0 0 0 0 0 0 0 0 0 0 0 0 0
0 0 0 0 0 0 0 0 0 0 0 0 0 0 0 0 0 0 0 0 0 0 0 0 0 0 0 0 0 0 0 0 0 0 0 0 0 0
0 0 0 0 0 0 0 0 0 0 0 0 0 0 0 0 0 0 0 0 0 0 0 0 0 0 0 0 0 0 0 0 0 0 0 0 0 0
0 0 0 0 0 0 0 0 0 0 0 0 0 0 0 0 0 0 0 0 0 0 0 0 0 0 0 0 0 0 0 0 0 0 0 0 0 0
0 0 0 0 0 0 0 0 0 0 0 0 0 0 0 0 0 0 0 0 0 0 0 0 0 0 0 0 0 0 0 0 0 0 0 0 0 0
0 0 0 0 0 0 0 0 0 0 0 0 0 0 0 0 0 0 0 0 0 0 0 0 0 0 0 0 0 0 0 0 0 0 0 0 0 0
0 0 0 0 0 0 0 0 0 0 0 0 0 0 0 0 0 0 0 0 0 0 0 0 0 0 0 0 0 0 0 0 0 0 0 0 0 0
0 0 0 0 0 0 0 0 0 0 0 0 0 0 0 0 0 0 0 0 0 0 0 0 0 0 0 0 0 0 0 0 0 0 0 0 0 0
0 0 0 0 0 0 0 0 0 0 0 0 0 0 0 0 0 0 0 0 0 0 0 0 0 0 0 0 0 0 0 0 0 0 0 0 0 0
0 0 0 0 0 0 0 0 0 0 0 0 0 0 0 0 0 0 0 0 0 0 0 0 0 0 0 0 0 0 0 0 0 0 0 0 0 0
0 0 0 0 0 0 0 0 0 0 0 0 0 0 0 0 0 0 0 0 0 0 0 0 0 0 0 0 0 0 0 0 0 0 0 0 0 0
0 0 0 0 0 0 0 0 0 0 0 0 0 0 0 0 0 0 0 0 0 0 0 0 0 0 0 0 0 0 0 0 0 0 0 0 0 0
0 0 0 0 0 0 0 0 0 0 0 0 0 0 0 0 0 0 0 0 0 0 0 0 0 0 0 0 0 0 0 0 0 0 0 0 0 0
0 0 0 0 0 0 0 0 0 0 0 0 0 0 0 0 0 0 0 0 0 0 0 0 0 0 0 0 0 0 0 0 0 0 0 0 0 0
0 0 0 0 0 0 0 0 0 0 0 0 0 0 0 0 0 0 0 0 0 0 0 0 0 0 0 0 0 0 0 0 0 0 0 0 0 0
0 0 0 0 0 0 0 0 0 0 0 0 0 0 0 0 0 0 0 0 0 0 0 0 0 0 0 0 0 0 0 0 0 0 0 0 0 0
0 0 0 0 0 0 0 0 0 0 0 0 0 0 0 0 0 0 0 0 0 0 0 0 0 0 0 0 0 0 0 0 0 0 0 0 0 0
0 0 0 0 0 0 0 0 0 0 0 0 0 0 0 0 0 0 0 0 0 0 0 0 0 0 0 0 0 0 0 0 0 0 0 0 0 0
0 0 0 0 0 0 0 0 0 0 0 0 0 0 0 0 0 0 0 0 0 0 0 0 0 0 0 0 0 0 0 0 0 0 0 0 0 0
Wind_Speed
6 6 5 4 3 3 3 3 3 3 2 2 1 2 3 4 7 7 7 11 12 13 15 16 17 18 19 20 21 22 24 24 25 26 26 27 28 29
6 7 6 5 4 4 3 2 2 2 2 1 1 2 3 3 6 6 6 9 8 12 14 15 15 16 18 19 20 22 23 24 24 25 26 27 28 28
7 8 8 7 5 4 4 3 3 2 2 1 1 1 2 4 5 5 5 6 5 10 13 14 14 15 16 18 19 21 22 23 23 24 25 26 27 28
10 9 9 7 7 5 4 4 3 2 2 2 1 1 2 3 5 5 5 5 6 9 11 12 13 14 15 16 18 20 20 22 23 23 24 25 27 28
11 10 10 10 8 6 6 5 4 3 2 2 2 1 2 3 5 4 5 5 5 6 8 10 11 12 13 15 16 18 19 20 21 22 24 24 26 27
9 9 10 9 9 9 6 6 5 4 3 2 2 2 2 2 3 4 5 5 6 4 6 8 9 9 10 12 14 16 18 19 21 22 22 23 24 25
9 8 8 7 8 7 6 6 6 4 3 3 2 2 2 2 3 4 5 6 6 2 6 6 6 5 5 8 11 15 17 18 19 21 21 22 23 24
11 9 8 8 9 9 8 7 6 5 4 3 2 2 2 2 3 4 5 5 4 3 6 6 4 5 4 4 10 14 16 17 18 19 20 21 22 23
11 10 7 7 8 7 8 8 6 5 5 4 4 4 3 2 3 4 4 5 5 5 6 5 4 5 4 4 9 12 14 16 17 17 19 20 20 21
10 10 10 10 8 8 7 6 5 5 5 4 4 3 3 3 3 4 4 5 6 3 2 4 4 5 5 4 6 10 12 14 15 16 17 19 19 19
8 9 9 9 12 12 8 7 6 4 4 4 4 4 4 3 3 2 3 3 4 2 0 3 4 5 5 3 3 7 10 12 14 15 16 17 18 16
7 7 8 10 12 13 8 7 7 6 4 3 4 4 3 3 3 3 3 3 3 3 0 2 3 4 5 2 3 4 5 8 12 13 14 16 17 10
8 7 7 13 13 14 10 7 7 5 4 4 4 3 3 3 3 3 3 4 4 4 1 2 3 3 4 5 3 3 4 5 6 7 9 14 15 12
8 7 8 14 14 13 9 8 9 6 4 4 4 4 4 3 3 3 3 4 4 5 3 2 3 3 4 5 4 3 3 3 4 5 6 9 10 12
6 9 11 13 12 9 9 9 7 5 5 5 5 4 3 3 3 2 3 3 5 5 4 4 5 4 5 5 5 4 4 3 3 4 5 5 5 6
6 7 11 11 9 6 5 6 5 5 5 5 4 3 3 3 3 3 3 3 3 4 5 5 5 5 5 6 6 5 4 4 3 4 4 4 4 4
8 5 6 6 7 6 6 5 5 5 5 5 4 4 4 4 4 3 3 3 4 3 3 3 3 5 6 5 5 5 4 4 3 3 4 4 3 3
9 6 8 8 8 8 7 7 6 6 6 5 5 5 5 4 4 4 4 4 5 4 4 2 2 2 4 6 8 6 4 4 3 3 3 4 4 2
9 8 8 9 8 8 7 7 7 6 5 5 5 5 5 5 4 4 4 5 5 5 4 3 3 3 4 4 3 6 4 3 3 3 3 3 4 4
9 9 9 8 8 8 7 7 6 6 6 6 5 5 5 5 5 5 5 6 5 4 4 4 5 5 5 4 3 3 5 4 3 4 4 4 4 6
10 9 8 8 7 7 7 6 6 6 6 6 6 6 5 5 6 5 5 6 5 5 5 5 3 3 3 2 4 4 3 6 6 4 4 4 4 3
9 8 8 7 7 7 7 6 6 6 7 6 6 6 6 6 6 7 6 6 5 5 5 3 2 3 4 5 6 5 4 3 5 8 9 7 4 3
8 8 7 7 7 6 6 7 8 7 7 7 6 6 6 6 6 6 6 6 5 5 5 4 4 4 5 5 6 5 5 4 3 4 5 7 10 11
Wind_Direction
156 150 142 138 141 151 165 197 219 222 208 171 170 67 13 1 355 346 347 354 350 354 356 357 357 357 355 354 354 353 351 350 349 347 346 345 343 341
146 146 141 139 136 140 150 166 210 233 219 172 173 22 357 345 349 341 344 339 349 351 352 354 356 357 356 355 356 355 352 351 351 350 349 348 346 345
147 148 146 147 146 145 149 156 167 200 215 187 206 333 318 336 342 341 338 340 345 348 348 352 354 356 356 356 357 356 356 356 355 353 352 351 350 349
156 154 152 152 151 151 155 160 161 176 206 215 215 273 298 330 332 332 337 336 338 341 345 350 352 353 355 356 358 358 360 359 358 357 356 355 355 354
159 161 159 159 160 160 162 162 159 164 188 212 235 264 286 323 323 324 331 331 336 334 340 347 347 349 352 356 358 359 1 0 0 360 358 358 358 357
156 159 162 167 165 164 163 164 163 168 181 208 231 253 279 319 315 327 328 334 330 324 336 337 338 337 346 351 358 1 1 1 0 360 360 0 1 360
152 156 159 158 160 163 164 167 170 175 185 204 225 249 277 314 326 329 320 324 321 322 330 324 323 328 339 345 353 359 0 0 360 360 1 2 3 3
155 154 151 155 160 164 169 173 178 182 188 203 220 244 268 289 310 313 319 325 318 343 328 312 312 318 333 337 348 355 359 360 360 360 1 3 4 5
159 158 159 164 167 167 171 175 181 197 205 216 230 239 257 268 288 294 298 299 294 319 322 299 310 311 327 323 339 353 357 358 360 1 1 3 4 6
162 164 164 168 176 173 172 177 186 197 203 215 230 242 252 261 260 274 288 286 279 273 303 290 310 312 313 307 332 350 355 356 0 2 2 2 3 4
160 166 169 172 179 181 178 182 192 202 207 214 228 240 247 247 253 256 268 287 293 287 300 294 306 313 302 291 324 342 350 354 357 360 2 3 2 1
162 169 179 181 184 188 187 188 198 199 195 205 216 226 230 232 235 241 253 268 282 286 107 299 299 317 303 290 311 329 337 346 350 355 360 2 4 1
169 176 185 189 192 195 194 198 206 190 194 205 215 222 224 226 230 233 239 247 258 260 289 288 285 290 285 298 299 315 331 336 339 344 352 359 4 7
176 177 182 189 193 196 199 201 202 194 196 205 218 224 227 231 238 245 242 247 253 262 275 260 264 275 283 287 289 308 314 325 333 336 340 348 358 4
173 176 179 187 191 199 205 201 196 198 203 212 223 228 229 238 245 247 237 242 247 242 239 239 252 261 259 268 286 298 306 309 326 330 334 341 347 351
170 174 182 190 194 190 194 201 200 206 213 220 226 225 218 221 226 231 238 239 247 236 217 227 244 251 254 259 269 278 286 296 315 322 322 323 333 343
159 161 179 188 196 200 201 202 200 199 208 216 218 216 217 222 225 221 232 233 240 250 236 219 235 249 253 263 266 266 275 281 294 314 312 312 322 334
166 186 197 202 205 204 204 203 203 206 207 207 211 215 218 221 224 220 226 232 244 250 251 241 242 248 237 232 231 262 268 275 287 294 295 298 304 323
196 205 207 207 208 207 206 206 206 202 200 206 212 214 217 221 222 223 224 231 240 245 242 228 222 235 257 264 201 212 256 274 278 275 276 282 292 308
212 214 213 210 207 206 205 206 204 196 199 207 211 212 213 217 220 224 224 229 236 239 237 224 221 225 240 273 281 239 234 253 264 273 280 284 284 290
212 216 214 209 206 205 203 202 202 203 202 205 210 211 210 215 224 226 229 225 231 236 238 237 220 217 247 256 257 251 232 232 248 265 277 284 285 279
216 216 214 209 204 202 200 197 200 204 204 207 211 211 211 215 224 225 225 225 225 233 244 243 190 197 213 230 249 261 259 252 256 259 257 250 262 274
216 215 212 206 203 199 198 200 204 207 206 206 208 209 208 213 220 223 224 224 227 227 230 228 211 213 226 237 252 259 260 265 266 265 250 248 259 270